User: anonymous   Login
Location: *
(57.8420°S, 159.8600°W)
Time: 02:12:32
(UTC+00:00)
Language:

Cosmos 1354 Rocket - Orbit

View from above orbital plane
View from above orbital plane
View from above satellite
View from above satellite

Ground track
Ground track

The orbit data is extracted from the following two-line orbital elements,

1 13149U 82037B   21208.54567202  .00000064  00000-0  31541-4 0  9990
2 13149  74.0422  21.2162 0013667 220.3209 139.6931 14.35403229 52703
Epoch (UTC): 27 July 2021 13:05:46
Eccentricity: 0.0013667
inclination: 74.0422°
perigee height: 764 km
apogee height: 783 km
right ascension of ascending node: 21.2162°
argument of perigee: 220.3209°
revolutions per day: 14.35403229
mean anomaly at epoch: 139.6931°
orbit number at epoch: 5270

The dashed part of the orbit path shows where the satellite is in the earth's shadow,  

DLR